Terminal Aerodrome Forecast
Issued by NWS

Home | Current Version | Previous Version | Graphics & Text | Print | Product List | Glossary On
Versions: 1 2 3 4 5 6 7 8 9 10 11 12
000
FTUS43 KOAX 281739
TAFCDR
TAF
KCDR 281739Z 2818/2918 31014G26KT P6SM SKC
     FM290000 30011KT P6SM SKC
     FM290200 26005KT P6SM SKC=

USA.gov is the U.S. government's official web portal to all federal, state and local government web resources and services.